This is the latest recevied weather packets stored in our database for station/object OM6ABF-12. If no packets are shown the sender has not sent any weather packets the latest 10 day(s).
| Time | Temp. | Humidity | Pressure | Rain* | Wind** | Luminosity | Snow |
|---|---|---|---|---|---|---|---|
| 1777238572 | -0.56° C | 47% | 1030.6 hPa | - | - | - | - |
| 1777237614 | 0° C | 47% | 1030.4 hPa | - | - | - | - |
| 1777236656 | 0° C | 46% | 1030.3 hPa | - | - | - | - |
| 1777235698 | 0° C | 46% | 1030.3 hPa | - | - | - | - |
| 1777234740 | 0° C | 47% | 1030.5 hPa | - | - | - | - |
| 1777233783 | 0° C | 48% | 1030.5 hPa | - | - | - | - |
| 1777232826 | 0° C | 48% | 1030.5 hPa | - | - | - | - |
| 1777231869 | 0° C | 49% | 1030.3 hPa | - | - | - | - |
| 1777230911 | 0° C | 48% | 1030.2 hPa | - | - | - | - |
| 1777229954 | 0° C | 49% | 1030.1 hPa | - | - | - | - |
| 1777228996 | 0.56° C | 49% | 1030.2 hPa | - | - | - | - |
| 1777228038 | 0.56° C | 48% | 1029.8 hPa | - | - | - | - |
| 1777227080 | 0.56° C | 47% | 1029.7 hPa | - | - | - | - |
| 1777226122 | 1.11° C | 46% | 1029.6 hPa | - | - | - | - |
| 1777225164 | 1.11° C | 46% | 1029.4 hPa | - | - | - | - |
| 1777224205 | 1.67° C | 43% | 1029.1 hPa | - | - | - | - |
| 1777223247 | 1.67° C | 43% | 1029.2 hPa | - | - | - | - |
| 1777222291 | 2.22° C | 42% | 1028.8 hPa | - | - | - | - |
| 1777221333 | 2.78° C | 42% | 1029 hPa | - | - | - | - |
| 1777220376 | 3.33° C | 40% | 1028.9 hPa | - | - | - | - |
| 1777219420 | 3.33° C | 39% | 1028.7 hPa | - | - | - | - |
| 1777218462 | 4.44° C | 37% | 1028.7 hPa | - | - | - | - |
| 1777217504 | 5° C | 36% | 1028.7 hPa | - | - | - | - |
| 1777216546 | 4.44° C | 35% | 1028.7 hPa | - | - | - | - |
| 1777215587 | 5.56° C | 35% | 1028.7 hPa | - | - | - | - |
* Rain since midnight (hover to see other rain measurements)
** Current wind speed in m/s (hover to see current wind gust speed)